Wind_Speed
15 15 16 16 15 14 14 14 13 12 12 11 11 10 10 10 10 9 8 8 8 7 7 7 8 8 8 8 9 8 7 8 9 8 8 8 9 8 7 7 7 7 7 7 8 8 8 8 8 8 8 9 9 9 9 9 9 11 12 11 12 12 11 11 11 12 12 12 12 12 13 13 14 14 15 16 16 17 18 17 16 17 17 17 17
15 15 16 16 16 15 14 14 14 13 13 12 12 11 10 10 10 9 9 8 8 7 7 8 8 8 8 8 9 9 8 9 9 9 8 9 9 9 8 9 9 8 7 7 7 8 8 8 8 8 9 9 10 10 10 10 11 11 12 11 12 12 12 12 12 12 12 13 13 13 14 14 15 15 16 17 17 17 17 16 16 17 18 18 17
16 15 16 16 17 17 16 15 14 14 14 13 12 12 12 11 10 10 9 8 8 8 7 8 8 8 8 9 9 9 9 9 9 9 9 8 9 9 9 10 9 8 8 8 8 8 8 8 8 8 9 9 10 10 10 10 11 12 12 13 13 13 14 14 14 14 14 13 14 14 15 15 15 16 16 17 17 17 17 16 16 17 17 17 16
17 16 16 16 17 17 16 15 14 14 13 12 13 13 13 12 11 11 10 9 9 8 8 8 8 8 8 8 9 9 9 9 9 9 9 8 9 9 9 9 9 8 8 8 8 8 8 8 8 8 8 9 9 10 10 10 11 11 12 13 13 14 14 15 15 15 15 14 14 15 15 15 15 15 15 15 16 16 16 16 16 16 16 15 16
17 17 16 16 16 17 17 17 15 14 14 13 13 13 13 13 12 12 11 10 10 9 9 9 9 8 8 8 9 9 9 9 9 9 9 9 9 9 9 9 8 8 8 8 8 8 8 9 8 8 8 8 9 9 10 10 10 11 12 12 12 13 14 14 15 15 15 15 14 14 14 14 14 14 14 15 15 15 16 16 15 16 16 16 17
18 17 17 17 17 17 17 17 16 16 15 15 14 13 13 14 13 13 13 12 11 11 11 11 10 10 10 10 10 10 10 10 10 10 10 10 10 10 9 8 8 8 7 7 8 7 8 8 8 9 9 8 8 9 9 10 10 10 11 11 11 12 13 14 14 15 15 15 15 14 14 15 15 15 15 16 16 16 16 15 15 16 16 16 16
18 18 18 18 18 17 17 17 17 17 16 16 16 15 15 14 13 13 13 13 12 12 13 13 12 12 12 12 12 11 12 12 11 11 12 12 11 11 11 10 9 8 8 8 8 8 8 8 8 8 8 8 8 9 9 10 10 11 10 10 11 12 13 14 15 15 16 16 17 16 16 16 16 16 16 16 16 16 16 15 14 15 16 16 15
20 19 19 19 19 18 18 17 17 17 17 17 17 16 15 15 14 13 13 14 14 13 13 13 13 13 12 13 13 12 12 13 13 12 13 13 13 13 13 12 10 9 9 9 8 8 9 9 8 9 9 9 8 7 9 10 10 11 12 12 12 13 13 14 15 15 16 17 17 18 18 17 16 15 15 16 16 17 18 18 16 16 17 18 19
22 21 21 20 19 19 19 19 19 19 18 18 17 17 16 16 15 15 15 15 14 14 14 14 13 12 12 13 14 13 13 13 14 14 14 14 14 14 14 13 12 11 10 10 9 9 10 9 10 10 10 10 8 8 10 12 12 12 12 13 13 14 14 15 15 15 16 17 17 17 18 17 17 16 16 17 18 18 20 20 20 19 19 19 19
23 22 21 20 19 20 21 21 21 20 20 20 19 18 18 17 16 16 16 15 14 14 15 15 15 14 13 13 13 14 15 15 15 15 15 15 15 16 15 14 14 14 12 11 11 11 10 10 10 11 10 12 13 13 13 14 14 13 12 12 13 14 14 15 15 16 17 17 18 18 18 18 18 18 18 18 19 19 20 21 21 21 20 19 18
24 23 23 22 21 22 22 23 24 25 25 23 21 19 19 18 18 18 17 16 16 16 16 16 15 14 14 13 13 15 17 16 15 15 14 14 15 16 16 15 15 15 13 13 13 13 13 12 12 12 12 14 16 17 15 15 15 14 13 14 14 15 16 16 16 17 17 18 18 18 19 18 18 19 19 20 20 20 21 21 21 21 21 22 20
26 25 23 22 22 23 22 24 25 26 26 24 22 21 21 20 21 21 19 18 18 18 18 17 17 16 16 16 16 18 18 17 17 16 15 14 15 16 16 16 16 16 15 15 15 16 16 16 15 14 15 16 16 15 14 13 14 15 16 17 17 17 18 18 18 17 18 19 19 18 18 19 19 19 20 21 21 21 21 20 21 23 24 24 23
28 27 25 23 22 23 22 21 21 23 23 22 21 22 23 23 23 22 20 19 18 19 19 19 19 19 19 19 19 20 19 18 18 18 16 15 15 16 16 16 17 17 17 17 17 17 18 19 18 17 17 18 18 18 17 15 16 17 18 19 19 18 18 19 20 20 20 21 20 18 17 18 18 18 18 20 21 22 22 22 23 26 26 24 23
31 30 29 26 24 25 24 21 19 22 24 23 22 24 25 25 25 24 23 21 20 21 22 21 21 22 22 22 23 23 21 20 20 20 18 17 16 16 17 17 17 18 19 20 21 21 21 21 19 19 19 19 20 21 21 20 20 20 19 20 20 19 19 21 22 22 21 21 22 20 18 18 19 18 18 19 22 23 25 25 26 27 26 24 23
34 33 32 30 28 27 26 23 20 22 26 25 24 24 24 24 25 25 24 24 23 24 24 24 24 24 24 25 26 25 24 23 23 23 22 21 19 18 19 19 18 18 20 23 24 23 23 23 22 22 21 21 21 22 23 23 23 23 22 22 21 21 20 22 23 23 22 22 22 22 21 21 21 22 22 22 24 25 26 27 28 28 27 25 24
35 34 33 31 30 30 29 27 24 24 26 28 27 25 23 23 23 24 24 25 25 25 26 26 26 27 27 28 29 28 27 26 25 25 25 24 23 22 22 22 21 21 22 24 24 24 25 25 24 24 24 23 22 23 24 24 24 24 24 24 23 22 21 22 23 23 24 24 24 23 23 22 22 23 24 25 26 27 28 29 30 30 30 28 27
37 35 33 32 32 31 29 29 27 26 27 29 29 27 24 24 24 24 24 24 25 26 26 27 28 29 30 31 32 30 28 27 27 26 26 26 25 25 25 24 23 24 25 25 25 25 26 26 26 26 26 25 25 25 25 26 26 25 25 25 24 23 23 23 22 22 24 25 26 25 25 25 26 26 26 27 28 29 30 31 32 32 33 32 31
33 35 36 32 27 23 23 24 24 24 26 29 28 26 24 24 26 26 26 26 27 27 27 27 29 30 31 31 30 29 29 29 28 27 26 26 27 27 26 26 25 25 26 26 26 26 26 26 26 27 27 27 26 26 26 27 27 26 26 25 24 23 24 24 23 23 25 26 27 27 27 28 29 29 29 30 31 31 31 32 32 33 33 32 31
24 28 31 29 23 20 22 25 23 22 22 23 22 20 19 20 22 25 27 29 28 27 26 27 29 30 31 31 29 29 29 29 28 27 27 26 26 27 26 27 27 26 27 27 27 26 26 27 27 27 27 27 26 27 27 27 27 27 26 26 25 25 25 26 26 26 26 27 28 29 29 30 30 30 31 32 33 34 33 32 31 32 32 31 31
17 19 22 22 20 19 23 27 28 27 26 23 20 19 18 16 16 18 21 25 24 23 24 25 27 28 27 27 27 27 27 26 24 27 29 28 26 26 26 26 27 27 27 27 26 26 27 27 27 28 29 29 28 27 27 26 27 27 27 27 28 27 27 27 27 27 27 27 28 30 30 30 30 31 31 31 33 35 34 32 30 31 32 32 32
15 17 18 19 20 21 24 27 28 27 27 25 23 21 17 14 13 14 16 20 21 20 19 19 20 18 16 17 18 17 18 19 20 22 27 27 25 24 24 25 26 26 26 26 26 26 26 26 26 27 28 28 28 28 27 27 27 28 28 29 29 29 29 28 27 28 28 28 29 30 31 30 31 32 31 31 32 32 31 31 31 30 31 31 31
13 14 15 16 18 19 20 21 20 20 20 20 19 17 15 15 17 18 17 16 16 15 13 12 12 11 11 13 14 12 12 14 16 19 22 23 23 23 23 23 24 24 24 24 24 25 27 27 26 24 24 24 26 27 27 26 27 27 28 29 29 30 30 29 29 29 29 29 30 30 31 31 32 32 31 31 32 31 30 30 29 29 28 28 28
11 11 11 10 10 10 9 9 9 9 11 11 11 10 9 10 14 15 11 9 9 9 8 7 6 6 7 8 9 9 10 13 15 17 18 19 20 21 22 22 23 23 23 24 25 27 28 28 26 24 23 24 25 25 24 24 25 25 26 27 28 28 28 28 28 27 28 28 28 29 29 30 30 30 30 30 29 29 28 27 25 25 25 25 26
12 12 11 10 9 8 8 8 7 5 6 7 7 6 4 2 3 5 5 5 5 5 3 3 4 4 4 4 5 5 7 9 10 12 15 17 19 20 21 21 22 23 23 24 24 24 22 21 20 20 21 21 21 21 21 21 22 22 22 23 23 24 24 24 23 23 24 24 25 26 27 27 27 27 27 27 26 26 26 25 24 24 25 26 26
13 13 13 14 14 13 12 12 11 9 8 8 9 8 6 4 3 3 4 5 5 5 6 7 7 7 7 7 8 8 7 6 7 9 10 12 14 16 18 19 20 20 21 20 20 19 18 17 17 17 18 18 19 19 20 20 21 21 21 21 22 24 24 23 23 23 23 24 24 25 26 27 27 27 27 26 26 27 27 27 27 27 27 28 28
11 12 13 13 13 14 15 15 16 15 14 13 12 11 11 10 9 7 7 7 8 8 8 8 8 8 8 8 10 11 10 10 11 12 12 13 14 16 18 19 19 20 20 20 20 20 21 21 21 21 21 21 22 23 23 23 23 24 25 24 25 27 27 26 26 26 26 26 27 27 28 28 28 29 29 28 28 28 28 28 28 28 28 28 29
10 9 9 8 8 8 9 11 14 15 15 15 14 12 12 12 12 12 11 11 12 13 12 12 12 12 11 11 13 14 14 14 16 16 17 18 19 20 22 22 23 23 23 23 24 24 24 24 25 25 25 25 25 26 27 26 26 26 27 27 27 29 29 28 28 27 27 27 27 27 27 27 27 27 27 27 27 27 27 27 27 27 27 27 27
10 9 9 9 9 8 8 9 10 12 12 12 11 10 10 11 11 12 13 14 15 16 16 16 16 16 16 16 17 17 17 18 19 19 20 21 22 22 23 23 24 24 24 25 25 25 25 26 26 26 26 26 26 27 27 27 26 26 26 26 27 27 27 27 26 26 25 26 25 25 25 25 25 26 26 26 27 27 27 28 28 28 28 28 28
9 10 10 11 11 11 11 11 12 13 13 12 13 13 13 13 14 15 15 16 16 17 17 17 18 17 18 19 20 20 20 20 20 20 21 22 22 22 23 23 23 23 24 24 24 25 25 25 25 25 24 25 25 25 25 26 25 24 24 24 25 25 25 25 24 24 25 25 25 25 25 25 26 26 26 27 28 28 29 29 29 30 30 30 30
9 10 11 11 12 12 13 13 13 14 14 14 14 15 15 15 16 17 17 18 18 18 18 18 19 18 18 19 20 20 21 21 21 20 20 21 21 21 22 22 22 22 22 23 23 23 23 24 24 23 23 23 24 23 23 23 23 23 23 23 23 24 24 23 24 24 25 25 26 26 27 28 28 28 28 29 29 30 30 31 31 31 32 32 32
9 9 10 10 11 12 12 13 14 14 14 14 15 16 16 16 16 17 17 18 18 18 18 19 19 19 19 19 19 20 20 22 21 21 20 20 20 20 20 21 21 21 21 22 22 22 22 22 22 22 22 22 22 22 22 22 23 23 23 23 24 24 24 24 25 26 26 27 27 28 29 30 30 31 31 32 32 32 33 33 33 33 34 34 34
11 11 11 11 11 11 11 11 13 13 13 13 14 15 16 16 16 16 16 16 17 17 18 18 18 18 18 18 18 19 19 20 20 20 19 19 18 18 19 19 19 20 19 20 20 21 21 21 21 21 21 22 22 23 22 23 23 24 24 25 25 26 26 26 27 28 29 29 30 31 31 32 32 33 33 34 35 35 35 36 36 36 36 36 36
13 13 13 13 13 12 12 11 12 12 12 13 13 14 14 15 15 15 15 15 16 16 17 17 17 17 16 16 16 16 16 17 17 17 17 17 17 18 18 18 19 19 19 20 20 20 21 21 22 22 22 22 23 24 24 25 25 25 26 26 27 27 28 28 29 30 30 31 31 32 33 33 34 34 35 35 36 36 36 37 37 38 38 38 38
13 14 14 15 15 15 14 14 14 13 13 13 13 13 14 14 14 14 14 14 15 15 15 16 16 16 16 15 16 16 16 16 16 17 18 18 19 19 19 20 21 21 21 21 22 22 23 23 23 24 24 25 25 26 26 26 27 27 28 28 29 29 30 30 31 32 32 32 33 34 34 35 35 36 36 36 37 38 38 38 39 39 40 40 40
14 14 15 15 16 16 16 16 16 15 15 15 15 15 15 15 15 16 16 16 16 16 16 17 17 17 18 18 19 19 19 19 19 20 20 21 22 22 22 22 23 24 24 24 24 25 25 26 26 26 26 27 27 28 28 28 29 29 30 30 31 31 31 32 33 34 34 35 35 36 37 37 37 37 38 38 38 39 40 40 41 41 42 42 42
16 16 16 16 16 17 17 17 17 16 17 17 17 17 17 17 17 18 18 18 19 19 19 20 19 19 20 21 22 22 22 22 22 23 23 23 23 23 23 23 24 25 26 26 27 27 27 28 28 28 28 29 29 30 30 30 30 31 31 32 33 33 33 34 35 36 36 37 37 38 38 39 39 39 39 40 40 40 41 42 42 42 43 43 44
18 18 18 18 18 18 18 18 18 17 17 18 18 19 19 19 19 20 20 21 21 21 22 23 22 21 21 22 22 22 22 22 24 24 24 24 23 23 23 23 24 25 26 27 29 29 30 30 30 30 30 31 31 32 32 32 32 33 34 34 35 36 37 37 38 38 39 39 39 40 40 40 40 40 40 41 41 41 41 41 42 42 43 43 44
21 21 20 20 20 20 19 19 19 19 19 18 19 19 19 20 20 21 21 22 22 22 22 24 24 24 24 25 23 21 20 21 23 24 24 24 24 24 24 24 25 25 27 29 30 30 30 31 31 32 32 33 33 34 34 34 35 35 36 37 37 38 39 39 39 40 40 40 41 41 42 42 42 42 42 42 41 41 41 41 42 43 43 44 44
23 22 22 22 21 21 21 21 21 21 20 20 20 20 20 20 21 21 22 23 23 23 23 24 24 25 26 26 25 23 22 23 23 23 24 25 25 25 26 26 27 28 29 31 31 31 31 32 32 33 34 35 35 35 36 36 36 37 38 39 39 39 40 40 40 41 41 41 42 42 43 43 43 42 42 42 42 42 43 43 44 45 46 46 46
24 24 23 23 22 22 23 23 23 23 22 22 22 22 22 21 22 22 22 23 24 24 25 25 26 27 27 26 25 25 25 25 24 24 25 27 27 27 28 28 28 29 30 32 32 33 33 34 34 34 35 36 37 37 37 37 38 38 38 39 39 40 40 40 40 41 42 42 42 43 43 43 42 41 41 42 43 44 45 46 46 47 48 49 49
25 25 24 24 24 24 24 24 24 24 24 24 24 24 24 23 23 23 24 24 25 25 25 26 27 28 28 28 27 27 26 26 26 26 26 27 28 29 30 30 29 30 31 32 33 33 33 33 33 34 36 37 38 38 38 39 39 39 39 40 40 41 41 41 41 41 41 41 41 42 42 41 41 41 42 43 45 46 46 47 48 49 50 51 52
27 26 25 25 26 25 25 25 25 25 25 25 25 25 25 25 25 25 25 25 26 26 27 27 28 29 29 29 28 28 28 28 29 29 28 28 29 30 30 30 30 31 32 34 35 35 34 33 33 35 36 37 38 39 39 39 40 40 40 40 40 41 41 42 41 41 40 40 41 42 43 43 43 44 45 46 47 48 49 49 50 51 52 52 53
30 29 28 27 27 28 28 27 27 26 26 26 26 26 27 27 27 27 27 27 27 27 27 28 29 30 30 30 29 28 28 29 30 30 30 30 31 32 32 32 32 33 34 35 36 37 36 35 34 35 36 38 39 40 40 40 41 41 41 41 40 41 41 41 41 41 41 41 42 43 44 46 47 47 47 48 49 50 51 52 53 54 54 55 55
34 33 32 31 30 30 30 29 29 28 28 28 27 27 28 28 28 28 28 28 29 29 29 29 30 31 32 32 31 30 30 31 31 31 31 31 32 32 33 33 34 36 36 36 37 38 38 37 37 37 38 39 39 40 40 41 41 41 41 41 41 41 41 41 41 41 42 43 44 45 46 47 49 49 50 50 50 51 52 53 54 54 55 56 56
37 36 36 35 35 33 33 33 32 32 31 31 30 30 30 30 30 29 29 30 30 31 30 30 31 32 33 34 34 33 33 33 32 32 32 32 32 32 33 34 35 36 37 37 37 38 38 39 39 39 39 40 40 40 40 40 40 40 41 41 41 42 42 42 42 43 44 45 46 47 48 49 50 50 51 51 52 52 53 53 54 54 55 55 55
39 38 37 38 37 36 35 35 35 34 34 34 33 33 33 32 31 30 30 30 31 31 32 32 32 33 34 35 35 36 36 35 34 34 33 33 33 33 34 35 36 36 37 37 37 37 38 38 39 39 39 39 39 39 39 39 40 41 42 42 43 43 44 44 44 46 47 47 48 49 50 50 49 49 49 51 52 52 53 53 53 53 53 53 53
39 38 37 38 37 36 35 35 35 35 35 35 35 34 33 33 33 32 31 31 31 31 32 32 33 34 34 35 36 37 37 37 36 36 36 35 35 35 35 35 36 36 37 37 37 37 37 38 38 39 39 39 39 39 40 40 41 42 43 43 44 45 45 46 47 48 48 48 49 49 50 50 49 49 49 50 51 51 52 52 51 51 51 51 51
37 35 35 36 36 35 35 35 35 34 35 35 35 34 33 33 33 33 33 32 32 31 32 32 33 34 34 35 36 37 37 37 37 37 37 36 36 36 37 37 37 36 37 37 37 37 37 38 38 38 39 39 40 40 41 41 42 43 44 45 45 46 46 46 47 47 47 48 48 49 49 49 49 49 49 49 49 50 50 50 50 49 49 49 48
33 33 33 33 33 34 34 34 34 34 34 34 34 34 33 32 33 34 34 33 32 32 31 31 32 32 33 34 35 36 37 37 37 37 37 36 37 37 37 37 37 37 37 37 37 37 37 38 38 39 39 40 41 41 42 43 44 45 45 45 45 45 46 45 45 44 45 46 47 48 49 49 49 49 48 48 48 48 48 47 47 47 47 46 45
30 31 31 31 32 33 33 33 34 34 34 34 34 34 33 32 32 33 33 33 32 32 31 31 32 32 33 34 34 35 36 36 36 36 36 36 36 37 37 37 37 37 37 37 37 38 38 38 39 39 40 40 41 42 43 43 44 45 44 44 44 44 44 43 43 43 44 46 47 47 48 47 47 46 46 46 46 46 46 46 46 46 45 44 43
29 29 30 31 32 32 33 34 34 34 34 35 34 33 33 33 32 32 32 32 32 32 32 32 32 33 33 34 34 34 34 35 35 35 35 35 35 36 36 36 36 36 37 37 37 38 38 39 39 40 40 41 41 42 42 42 43 42 41 41 41 42 42 42 43 44 45 45 45 45 45 44 44 45 45 45 45 45 45 45 44 43 42 41 40
Wind_Direction
211 211 210 208 207 206 204 205 205 201 198 199 201 199 194 197 198 200 211 214 213 218 223 224 225 224 227 231 234 235 234 240 244 242 242 244 248 253 253 256 263 262 254 250 255 258 258 261 260 257 258 259 263 269 274 278 279 279 282 286 288 292 298 302 302 302 305 306 306 308 309 310 314 317 317 316 317 317 318 321 323 324 322 322 326
212 212 212 211 211 212 210 209 209 209 206 204 205 206 206 206 203 202 211 216 216 218 221 226 226 227 231 230 235 238 237 240 244 244 244 246 251 256 258 262 266 267 264 257 259 264 266 268 271 270 269 266 265 268 269 270 273 278 283 287 290 295 299 299 299 300 302 304 306 308 310 312 314 314 312 311 312 313 315 319 321 321 320 322 325
214 213 213 212 214 215 216 214 214 215 213 210 209 211 212 212 209 207 209 215 219 219 222 229 228 229 233 235 240 243 242 244 248 249 247 247 252 255 258 265 268 266 267 266 265 267 268 270 272 272 272 272 271 272 272 272 274 279 285 289 293 297 299 301 304 304 304 306 308 311 312 312 312 312 312 313 315 315 318 321 321 320 321 321 321
217 214 213 213 214 216 218 218 218 219 218 216 216 215 215 214 214 215 213 217 223 222 224 230 233 235 236 238 243 246 246 247 248 251 252 251 253 255 257 262 265 268 273 275 275 276 273 270 270 272 274 276 277 277 277 278 279 280 283 287 292 296 298 302 305 305 307 311 313 313 313 313 314 315 316 316 317 318 319 319 319 320 320 319 320
219 217 215 214 215 216 217 218 220 221 220 220 220 220 221 218 216 217 217 219 224 226 229 232 232 238 243 244 243 244 246 248 246 248 252 254 254 255 257 259 261 265 271 276 279 282 281 278 277 275 275 276 278 281 282 283 284 285 287 290 294 299 300 302 305 306 311 314 314 315 316 315 315 315 316 316 315 317 317 316 317 317 316 317 318
220 220 218 216 217 217 217 218 220 221 221 221 220 222 226 225 220 218 219 222 225 228 231 233 232 235 241 242 242 242 243 245 247 248 250 252 255 257 257 259 262 265 270 275 277 279 281 283 283 281 281 283 284 287 289 290 290 290 292 295 298 301 302 303 306 309 311 310 310 313 313 313 314 316 317 317 316 315 313 310 309 309 310 312 312
221 223 223 221 219 218 218 219 219 221 222 222 222 221 222 226 226 223 223 225 229 232 233 233 233 234 236 240 241 241 242 244 245 248 252 255 256 257 257 257 259 264 273 278 280 283 284 282 282 282 283 283 287 292 293 292 294 296 297 300 301 302 304 306 309 310 309 309 310 311 311 312 315 316 315 313 311 312 310 308 309 312 315 316 317
219 222 226 226 225 223 220 220 221 222 223 224 224 223 222 225 228 228 228 229 231 237 241 240 238 236 237 242 245 243 244 247 249 248 251 255 257 258 259 260 259 261 271 280 284 288 288 286 284 280 275 272 275 285 290 291 294 296 298 302 303 305 308 308 309 309 308 308 308 309 308 308 309 308 306 306 310 314 315 314 316 321 324 323 326
220 220 222 224 225 226 225 223 222 222 224 225 225 224 224 225 226 229 230 230 230 236 242 246 246 244 242 244 249 250 247 248 252 252 250 252 257 259 261 264 266 265 269 277 282 285 285 287 287 284 284 286 279 275 282 287 290 291 294 299 302 305 307 308 308 308 307 306 306 306 305 305 306 305 304 308 311 311 308 308 312 318 320 321 325
229 224 223 223 221 222 224 226 227 225 224 224 223 222 224 225 227 231 230 230 232 236 241 246 249 251 250 248 250 255 253 248 248 251 253 255 257 259 260 263 265 265 265 269 273 275 275 276 276 278 283 286 282 279 281 284 288 290 290 292 296 300 303 306 307 307 307 308 308 308 307 309 310 308 306 307 306 303 302 306 311 314 316 318 323
236 231 231 231 226 221 219 220 224 225 225 224 221 219 221 223 225 227 226 225 226 228 234 241 244 248 251 251 249 251 252 250 247 249 255 259 261 262 265 264 263 264 265 267 268 269 270 269 270 273 273 272 273 277 280 284 288 290 290 292 295 299 301 303 303 303 304 304 305 306 307 308 307 306 306 306 305 306 309 311 313 316 319 322 325
245 245 245 243 240 237 230 222 222 225 226 227 226 225 225 226 229 230 230 230 229 228 231 234 237 241 243 245 246 247 248 251 252 252 253 256 261 265 266 266 266 268 269 270 271 269 267 264 262 263 263 263 265 268 271 277 284 287 292 296 299 300 299 297 296 296 297 297 297 299 301 302 302 303 305 306 307 310 312 313 314 316 319 322 325
249 252 253 252 251 253 250 243 238 235 233 231 230 231 232 232 234 236 237 239 241 241 238 237 240 245 246 247 249 251 253 254 256 258 257 254 255 257 261 263 264 266 268 269 269 267 263 260 258 258 261 268 273 275 275 275 279 284 292 297 298 298 296 294 294 295 295 293 291 292 296 297 298 303 306 306 307 309 309 309 310 311 315 319 322
248 251 254 254 252 255 258 256 248 244 245 243 238 238 239 238 239 239 239 241 245 248 248 246 246 248 250 251 252 254 257 257 258 260 259 257 256 256 260 262 262 263 265 265 264 264 265 266 266 265 266 270 273 277 280 281 281 284 288 292 294 293 292 293 294 295 295 295 295 299 302 300 299 302 304 303 302 302 303 305 306 308 310 313 318
246 249 253 254 254 257 258 254 247 248 253 252 247 245 246 246 245 245 244 244 244 246 249 250 251 252 251 252 252 253 254 255 257 259 259 260 261 261 262 264 265 264 263 263 264 266 269 272 273 272 271 272 272 274 278 281 282 285 286 288 288 287 287 290 291 292 295 296 296 298 301 302 300 300 299 297 296 297 299 302 304 307 309 312 320
245 247 250 250 252 255 254 250 252 256 255 251 248 247 248 249 251 251 250 250 249 249 249 250 253 254 254 254 253 253 253 253 255 258 261 263 264 264 265 267 268 266 264 266 268 269 269 271 273 274 275 276 276 274 274 277 280 282 284 285 285 284 285 287 289 293 297 298 297 296 297 299 299 297 297 296 297 298 301 303 305 308 310 313 318
243 243 246 246 246 248 247 247 251 255 255 255 254 253 251 252 254 254 253 254 254 254 254 254 254 254 255 257 257 256 256 255 254 256 260 262 263 263 264 265 265 266 267 269 269 269 268 269 269 271 274 277 277 275 274 275 277 279 281 283 285 285 284 284 286 290 292 294 295 296 296 295 295 294 295 296 297 299 301 303 304 306 306 307 309
240 238 242 242 238 235 236 242 248 251 253 257 260 260 259 258 256 254 253 254 256 256 257 258 258 257 257 258 258 257 258 258 258 258 259 261 261 261 261 262 262 263 265 266 267 268 269 270 270 271 273 275 275 276 277 277 276 277 279 280 281 281 282 283 286 288 287 287 289 289 289 288 287 288 291 292 293 294 296 298 301 304 304 304 305
238 233 233 232 227 229 238 247 251 251 253 256 259 260 261 260 257 253 252 253 255 256 257 260 262 262 263 263 262 261 260 261 260 260 262 262 260 259 259 261 262 262 263 266 269 271 273 275 275 276 277 277 276 277 278 277 274 274 275 276 276 276 278 281 284 284 284 285 286 286 284 284 284 286 288 289 290 292 294 296 299 302 304 304 304
230 229 230 230 232 238 244 248 250 253 256 261 262 261 261 262 259 253 251 251 250 251 256 261 264 264 266 266 264 261 260 259 257 258 261 263 260 258 258 258 258 260 262 265 268 271 274 277 279 280 280 278 277 277 277 276 275 274 275 275 277 278 280 282 283 284 284 285 285 285 285 285 285 286 287 289 292 296 298 298 297 299 301 302 304
234 236 240 245 249 249 248 250 254 257 260 262 262 259 254 251 254 258 258 256 254 254 259 266 265 261 260 260 259 259 258 254 248 249 255 257 257 256 256 255 255 257 260 264 267 270 273 277 279 281 282 280 276 275 275 277 278 278 278 278 279 281 283 284 285 286 286 286 286 286 287 288 288 289 291 293 294 296 297 297 297 297 299 301 302
234 237 241 247 250 248 248 252 256 257 257 256 255 250 240 239 250 259 261 260 261 263 268 272 268 260 252 250 252 251 244 236 235 240 246 250 253 254 255 255 255 256 258 261 265 270 274 277 277 280 283 282 278 277 277 279 279 280 281 281 281 281 282 283 285 285 285 286 286 287 288 288 289 291 293 294 294 295 296 296 297 298 298 300 301
221 226 228 229 229 227 224 227 236 244 244 238 230 227 227 233 243 250 254 256 259 265 272 274 264 248 239 237 239 240 232 230 236 242 246 249 251 252 253 254 255 255 256 259 264 270 275 277 276 274 274 273 274 276 278 279 279 280 280 280 280 280 281 282 284 286 286 286 286 287 288 288 289 290 291 291 293 295 295 295 296 297 298 299 300
214 215 215 216 218 217 209 204 202 198 194 188 181 183 195 205 214 220 221 220 225 232 242 235 212 200 208 223 239 249 246 245 251 256 258 257 255 255 256 257 258 259 260 263 268 272 276 276 275 272 270 271 273 276 278 279 280 280 280 280 281 282 283 285 287 288 288 289 289 289 289 290 291 291 291 292 293 292 292 293 294 294 295 296 297
220 224 230 234 237 238 233 227 222 211 196 188 185 187 192 182 154 165 190 202 206 208 213 220 225 232 241 246 249 248 246 250 257 264 267 265 261 260 259 257 258 260 261 264 268 272 275 276 276 275 275 275 276 277 276 277 279 280 281 282 282 282 284 286 287 287 288 288 288 287 288 289 290 291 292 292 291 290 290 291 292 292 292 292 293
227 231 238 242 244 246 244 236 231 229 226 225 226 228 226 219 209 205 207 210 213 216 216 216 222 232 242 248 251 252 254 257 254 251 254 256 255 256 257 258 260 262 264 267 269 271 273 274 274 275 274 274 275 275 275 275 277 278 279 280 280 281 283 285 285 285 286 285 285 285 286 287 288 289 290 290 290 290 290 290 290 291 291 291 291
217 221 227 228 228 233 235 229 227 231 235 239 243 245 240 229 222 219 216 213 216 221 222 219 218 222 228 235 242 248 255 259 257 254 254 254 253 254 257 261 263 264 265 268 269 271 272 273 274 275 275 275 275 275 275 276 276 278 280 281 281 282 284 286 286 287 287 286 287 287 287 288 289 290 291 291 292 293 293 293 293 293 293 293 293
212 213 215 214 214 216 216 214 216 221 226 231 234 232 228 224 224 225 223 221 223 227 230 230 231 234 237 240 244 246 250 254 254 253 255 256 256 257 259 260 262 264 266 267 269 270 271 272 273 274 275 276 277 277 278 279 279 279 279 280 281 283 285 286 288 288 288 289 290 291 291 292 293 294 294 296 297 298 299 299 299 300 299 299 298
219 220 221 221 223 224 223 222 222 223 225 226 227 229 229 229 231 233 234 235 236 238 240 242 244 246 248 250 253 254 256 257 256 256 257 259 261 262 262 262 263 264 266 267 268 270 271 271 272 273 274 275 277 278 280 281 282 282 282 281 282 283 285 287 289 291 291 293 294 296 296 296 297 297 298 299 299 300 300 301 301 301 301 301 301
235 233 233 232 232 232 232 233 233 234 236 236 237 238 237 237 239 241 242 244 245 246 248 250 251 252 252 255 259 261 263 265 265 265 264 265 265 266 266 267 267 267 267 268 269 270 272 273 274 274 275 276 277 278 280 281 282 284 284 285 285 286 287 289 291 292 293 294 296 297 297 298 298 299 299 299 298 299 299 299 299 299 299 299 299
261 256 250 247 245 244 244 245 244 245 245 245 248 249 249 248 250 250 251 253 254 255 255 256 257 258 258 260 264 266 268 269 271 272 272 272 272 271 271 271 271 271 271 272 272 272 273 274 275 276 276 277 278 279 281 282 284 286 287 288 289 290 291 293 293 294 294 295 296 296 296 297 297 298 298 298 298 298 299 298 299 299 299 299 299
278 276 272 268 264 259 255 254 254 255 254 252 253 255 256 257 257 257 259 260 261 262 263 262 263 262 261 261 262 264 265 267 270 272 274 275 276 276 275 275 275 274 274 274 274 275 275 274 275 276 276 278 279 281 282 283 285 286 287 288 290 291 292 293 293 293 293 294 295 295 295 295 296 296 297 297 298 298 298 298 299 299 299 299 299
276 277 277 277 276 273 269 264 261 260 258 256 255 255 255 257 258 259 260 260 261 263 265 266 268 269 267 265 264 265 266 268 270 273 275 276 277 277 278 278 277 277 277 276 275 276 276 276 277 277 277 278 279 280 281 282 283 284 285 286 287 288 289 291 291 291 292 293 293 293 294 294 295 295 295 296 296 297 297 297 298 298 298 298 298
269 269 271 272 273 273 273 271 271 270 267 266 264 261 260 260 260 261 261 261 262 264 265 267 269 271 273 274 273 272 272 272 274 277 278 278 279 280 280 281 281 280 280 279 278 277 276 276 276 276 277 278 278 278 279 280 281 282 283 284 284 285 287 288 289 289 291 292 292 293 293 293 294 294 295 296 296 296 297 297 297 297 297 298 298
267 267 267 268 269 269 269 270 270 271 271 272 272 271 271 272 270 269 269 268 268 267 267 269 271 273 275 277 278 278 279 279 279 278 277 277 278 279 280 281 282 282 281 280 280 279 278 277 277 277 277 278 278 279 280 280 281 282 283 284 285 286 287 288 289 290 291 292 292 293 293 293 294 294 295 295 295 296 296 296 297 297 297 297 297
270 270 270 269 267 267 267 268 268 268 269 272 273 274 275 276 275 275 275 274 273 273 272 271 272 273 274 275 276 278 280 282 281 279 278 277 278 278 279 280 280 280 280 280 279 279 278 278 278 279 279 279 280 281 282 283 285 286 286 286 288 289 290 290 291 292 292 292 293 293 293 293 293 294 294 294 294 295 295 296 296 296 296 296 295
272 272 271 270 268 267 266 266 267 268 268 269 271 273 274 275 276 277 278 277 277 277 277 275 274 275 275 274 274 276 278 279 279 279 279 280 280 280 279 278 277 277 278 278 278 278 279 280 282 282 282 282 282 283 285 285 286 287 287 288 290 290 290 290 291 292 292 293 293 293 293 293 294 293 293 293 294 294 295 295 294 294 293 294 295
272 272 271 271 270 268 267 266 266 266 268 269 270 272 273 274 275 277 278 279 279 279 279 278 277 277 276 275 275 278 279 278 277 278 279 280 281 281 280 279 278 277 276 276 277 278 280 282 283 283 283 283 284 284 285 285 285 286 286 287 287 287 288 289 290 290 291 292 292 292 293 293 293 294 295 296 297 297 296 295 294 294 294 295 295
273 273 273 273 272 272 271 271 270 269 269 269 270 271 273 275 275 276 277 278 279 279 279 279 279 278 277 277 279 280 279 276 276 278 279 278 278 277 277 277 277 277 278 278 280 281 282 282 282 283 283 283 283 284 284 284 284 285 285 286 286 287 288 289 290 291 291 291 291 291 291 292 293 295 296 297 296 295 294 294 295 295 296 296 296
271 272 273 274 275 276 277 276 276 275 274 274 273 274 274 276 277 278 278 278 278 279 279 279 279 280 281 282 283 282 279 278 277 277 277 277 278 277 275 275 275 275 276 278 278 279 280 281 283 284 285 285 285 285 285 284 285 285 285 285 286 286 287 288 289 289 290 290 291 291 292 294 295 296 296 295 293 293 294 294 295 295 296 296 296
268 269 270 272 275 277 278 278 279 279 280 280 280 279 279 279 279 280 279 279 279 279 279 279 279 280 282 283 283 284 284 283 281 278 276 275 276 276 276 277 278 277 277 277 277 278 278 280 281 282 282 282 283 284 284 285 286 286 286 286 287 288 288 288 288 288 289 290 290 291 292 293 293 292 292 291 292 292 293 293 294 294 295 295 296
265 265 267 270 272 274 275 276 278 280 282 283 283 283 283 282 281 280 281 280 280 280 281 280 280 280 281 281 282 284 284 284 283 282 281 279 278 278 279 279 279 279 279 279 280 280 281 281 280 280 279 280 281 282 283 284 284 285 285 286 287 287 287 288 288 289 290 291 292 292 292 292 291 291 292 293 293 293 294 294 295 295 295 295 295
265 265 265 267 269 272 273 275 278 280 282 282 282 282 283 282 281 281 280 280 279 280 280 280 280 280 281 281 282 282 281 280 280 280 280 281 281 282 282 282 281 280 280 280 282 283 283 282 280 279 279 280 281 282 283 283 284 285 286 287 287 286 286 287 288 289 290 289 289 290 290 291 291 292 293 295 296 296 297 297 297 298 298 298 298
265 267 268 267 267 270 273 276 279 280 279 279 279 280 280 280 280 279 279 279 279 280 280 279 280 280 281 282 282 280 278 278 278 278 279 279 280 280 281 281 281 281 281 282 283 284 285 284 283 282 282 281 282 282 283 284 285 286 286 286 286 286 287 288 289 289 289 289 289 289 290 291 292 293 294 295 296 296 297 298 298 299 299 300 300
262 265 267 268 267 268 271 274 277 277 276 277 278 279 279 278 277 276 277 278 278 279 280 279 279 279 280 281 281 280 279 279 279 279 279 279 279 280 280 280 280 281 281 282 282 282 282 283 283 282 282 282 282 283 284 284 285 285 285 286 287 287 288 289 289 290 290 290 291 292 293 294 295 296 297 298 298 299 299 300 301 301 301 301 301
261 263 266 267 267 267 269 271 273 274 274 275 277 278 277 276 274 273 275 276 277 278 279 278 278 278 278 279 280 281 281 282 282 282 281 281 281 280 280 280 280 281 281 282 282 281 281 281 281 281 281 282 283 283 284 284 285 285 286 287 287 288 289 291 292 292 292 293 295 295 296 297 298 299 300 301 302 302 303 304 304 304 304 304 304
262 263 264 265 266 266 267 269 269 270 272 274 274 274 274 274 274 273 273 274 275 276 276 276 276 276 277 277 278 280 281 282 282 282 283 283 282 282 281 281 281 281 281 282 282 281 281 281 281 282 282 283 284 284 284 285 286 286 287 287 288 290 292 293 294 294 294 295 296 297 297 298 300 301 301 302 303 303 304 305 305 306 307 307 307
261 261 262 262 263 265 266 266 266 267 268 270 271 271 272 273 274 274 274 275 275 275 274 273 273 274 275 275 277 278 278 279 280 281 281 282 282 282 282 282 282 282 282 282 281 281 282 282 282 283 283 284 284 285 285 286 287 287 288 288 290 292 293 294 294 295 296 296 297 297 298 299 300 300 301 301 302 303 304 305 305 306 307 307 308
258 259 259 260 261 261 262 263 264 265 265 265 267 269 271 272 272 274 275 276 276 275 273 272 271 272 272 273 274 275 276 277 278 279 280 280 281 281 281 281 282 282 282 282 282 282 282 282 283 283 284 284 285 286 287 288 288 289 290 291 292 293 294 294 294 295 296 296 297 297 298 299 299 299 299 300 301 302 303 304 305 305 305 306 307
259 258 257 257 256 255 256 259 261 262 262 263 265 268 270 270 270 271 272 273 273 273 272 272 272 272 272 273 274 274 275 276 277 278 278 279 279 279 280 280 281 281 281 282 282 282 282 283 284 284 285 286 287 287 288 289 290 291 292 293 294 294 294 295 295 296 296 296 297 297 297 297 297 297 297 298 299 300 301 302 302 303 303 303 304
257 255 254 253 253 253 254 256 259 261 262 264 265 267 268 268 267 267 268 268 269 270 271 272 273 274 275 275 274 274 275 276 277 278 278 279 279 279 280 280 281 281 281 282 283 283 284 285 285 286 287 288 288 289 290 291 292 293 293 294 294 294 296 296 297 297 297 297 297 297 297 297 297 297 297 297 298 299 300 300 301 301 302 303 303
Height
3219 3221 3223 3224 3226 3227 3229 3230 3231 3233 3234 3235 3236 3237 3237 3238 3240 3241 3242 3242 3243 3244 3245 3246 3247 3247 3248 3249 3250 3250 3251 3252 3253 3254 3255 3256 3256 3257 3257 3258 3258 3259 3260 3260 3261 3261 3262 3262 3263 3263 3263 3263 3263 3263 3263 3263 3263 3262 3262 3262 3262 3261 3262 3262 3261 3261 3261 3261 3260 3260 3259 3259 3258 3257 3257 3256 3255 3255 3254 3254 3253 3252 3251 3251 3250
3219 3221 3222 3224 3225 3227 3228 3230 3231 3232 3233 3234 3235 3236 3237 3238 3240 3241 3242 3243 3243 3244 3245 3246 3246 3247 3248 3249 3249 3250 3251 3252 3252 3253 3254 3255 3255 3256 3257 3257 3257 3258 3258 3259 3260 3260 3261 3261 3261 3262 3262 3262 3262 3262 3262 3262 3262 3261 3261 3261 3261 3260 3260 3260 3260 3260 3259 3259 3259 3258 3258 3257 3256 3256 3255 3254 3254 3253 3253 3252 3251 3251 3250 3249 3248
3219 3220 3222 3223 3225 3226 3228 3229 3231 3232 3233 3234 3235 3236 3237 3238 3239 3240 3241 3242 3243 3244 3245 3245 3246 3247 3248 3248 3249 3250 3250 3251 3252 3252 3253 3254 3254 3255 3256 3256 3257 3257 3257 3258 3258 3259 3259 3259 3260 3260 3260 3261 3261 3261 3261 3261 3261 3261 3260 3260 3260 3259 3259 3259 3259 3258 3258 3258 3257 3256 3256 3255 3255 3254 3253 3253 3252 3252 3251 3251 3250 3249 3248 3247 3246
3218 3220 3221 3223 3224 3226 3227 3229 3230 3232 3233 3234 3235 3236 3237 3238 3239 3240 3241 3241 3242 3243 3244 3245 3246 3246 3247 3248 3249 3249 3250 3251 3251 3252 3252 3253 3254 3254 3255 3255 3256 3256 3257 3257 3257 3257 3258 3258 3258 3259 3259 3259 3260 3260 3260 3260 3260 3260 3260 3260 3259 3259 3258 3258 3257 3257 3257 3256 3256 3255 3255 3254 3254 3253 3252 3252 3251 3250 3250 3249 3248 3248 3247 3246 3245
3218 3219 3221 3222 3223 3225 3227 3228 3229 3231 3232 3233 3234 3235 3236 3237 3238 3239 3240 3240 3241 3242 3243 3244 3245 3246 3247 3247 3248 3249 3249 3250 3251 3251 3252 3252 3253 3253 3254 3254 3255 3255 3256 3256 3256 3256 3257 3257 3257 3257 3257 3258 3258 3259 3259 3259 3259 3259 3259 3259 3259 3258 3258 3257 3257 3256 3255 3255 3254 3254 3253 3253 3252 3252 3251 3250 3250 3249 3248 3248 3247 3246 3245 3244 3243
3217 3219 3220 3221 3223 3224 3226 3227 3229 3230 3231 3232 3233 3234 3235 3236 3237 3238 3239 3239 3241 3242 3243 3243 3244 3245 3246 3247 3247 3248 3249 3249 3250 3250 3251 3251 3252 3252 3253 3253 3254 3254 3254 3255 3255 3255 3255 3256 3256 3256 3257 3257 3257 3257 3257 3257 3257 3257 3257 3257 3257 3257 3257 3256 3255 3255 3254 3254 3253 3253 3252 3251 3251 3250 3249 3249 3248 3247 3247 3246 3246 3245 3244 3243 3242
3216 3218 3220 3221 3222 3224 3225 3226 3228 3229 3230 3231 3232 3233 3234 3235 3236 3237 3238 3239 3239 3240 3241 3242 3243 3244 3245 3245 3246 3247 3248 3248 3249 3249 3250 3250 3251 3251 3252 3252 3253 3253 3253 3254 3254 3254 3254 3255 3255 3256 3256 3256 3256 3256 3256 3256 3256 3256 3256 3256 3255 3255 3255 3254 3254 3253 3253 3252 3252 3251 3251 3250 3249 3249 3248 3247 3246 3246 3245 3244 3244 3243 3242 3241 3240
3215 3217 3219 3221 3222 3224 3225 3226 3227 3228 3229 3230 3231 3232 3233 3234 3235 3236 3237 3238 3239 3239 3240 3241 3242 3243 3244 3244 3244 3245 3247 3247 3247 3248 3248 3249 3250 3250 3251 3251 3252 3252 3252 3253 3253 3253 3254 3254 3254 3254 3254 3254 3254 3255 3255 3255 3255 3255 3254 3254 3254 3253 3253 3252 3252 3251 3251 3250 3250 3250 3249 3248 3248 3247 3246 3245 3244 3243 3242 3241 3241 3240 3239 3238 3237
3214 3216 3218 3220 3222 3224 3225 3226 3226 3227 3229 3230 3231 3232 3232 3233 3234 3235 3236 3237 3238 3239 3239 3239 3240 3242 3243 3243 3243 3244 3245 3245 3246 3247 3247 3247 3248 3249 3249 3250 3251 3251 3251 3251 3252 3252 3252 3253 3253 3253 3252 3252 3253 3253 3253 3253 3253 3253 3253 3253 3252 3252 3251 3251 3250 3250 3249 3249 3248 3248 3247 3247 3246 3245 3244 3244 3243 3242 3241 3240 3239 3238 3237 3236 3236
3213 3216 3218 3219 3220 3222 3223 3225 3226 3227 3228 3228 3229 3230 3231 3232 3233 3234 3234 3236 3237 3238 3238 3238 3239 3240 3241 3242 3242 3242 3242 3243 3244 3245 3245 3246 3246 3247 3248 3249 3249 3250 3250 3250 3250 3251 3251 3251 3251 3251 3251 3251 3251 3251 3251 3251 3251 3251 3251 3251 3250 3250 3249 3249 3248 3248 3247 3246 3246 3246 3245 3245 3244 3243 3243 3242 3241 3240 3239 3238 3237 3237 3236 3235 3235
3213 3215 3217 3218 3219 3220 3221 3222 3223 3224 3224 3226 3227 3228 3229 3230 3230 3230 3231 3232 3233 3234 3236 3237 3237 3238 3239 3240 3240 3239 3239 3241 3242 3243 3244 3245 3245 3246 3247 3247 3248 3248 3249 3249 3249 3249 3249 3249 3250 3250 3250 3249 3248 3249 3249 3249 3249 3249 3249 3249 3249 3248 3248 3247 3246 3246 3245 3244 3244 3243 3243 3242 3242 3241 3241 3240 3239 3238 3237 3237 3236 3235 3234 3233 3232
3211 3213 3215 3216 3218 3219 3221 3221 3221 3221 3222 3225 3227 3227 3228 3228 3227 3228 3229 3230 3231 3232 3233 3234 3234 3235 3236 3237 3237 3236 3237 3238 3239 3241 3242 3243 3244 3244 3245 3246 3246 3247 3247 3247 3247 3248 3248 3247 3247 3247 3246 3245 3245 3246 3247 3247 3247 3248 3248 3248 3247 3247 3247 3246 3245 3244 3243 3242 3241 3241 3241 3240 3240 3240 3239 3238 3237 3237 3236 3235 3234 3233 3232 3231 3230
3208 3210 3212 3213 3214 3216 3219 3221 3221 3220 3220 3221 3224 3225 3226 3227 3226 3227 3228 3229 3230 3231 3231 3232 3232 3234 3235 3235 3235 3235 3236 3237 3237 3238 3240 3241 3242 3243 3243 3243 3244 3244 3245 3245 3245 3245 3244 3244 3244 3244 3244 3243 3243 3244 3244 3245 3245 3245 3245 3245 3245 3245 3245 3244 3243 3242 3241 3240 3240 3239 3239 3238 3237 3238 3237 3236 3235 3234 3233 3233 3232 3230 3229 3229 3228
3205 3206 3207 3210 3211 3214 3216 3218 3219 3219 3218 3219 3221 3223 3224 3225 3224 3225 3226 3227 3228 3229 3230 3230 3231 3232 3233 3233 3233 3234 3235 3235 3236 3237 3238 3239 3240 3240 3241 3241 3242 3242 3242 3242 3241 3241 3241 3241 3242 3242 3243 3243 3243 3242 3242 3242 3242 3243 3243 3243 3243 3243 3242 3242 3241 3240 3239 3238 3237 3237 3237 3236 3235 3235 3235 3234 3232 3231 3230 3230 3229 3227 3227 3226 3226
3201 3202 3205 3207 3209 3211 3214 3215 3216 3217 3217 3218 3220 3221 3222 3222 3222 3222 3223 3224 3225 3226 3227 3229 3229 3229 3229 3230 3230 3231 3232 3233 3234 3234 3235 3236 3237 3238 3238 3239 3239 3240 3239 3238 3238 3239 3239 3239 3239 3239 3240 3240 3240 3240 3240 3240 3239 3239 3240 3240 3240 3240 3240 3239 3238 3237 3236 3236 3236 3236 3235 3235 3234 3233 3232 3231 3230 3229 3228 3227 3226 3224 3223 3223 3223
3197 3198 3201 3204 3206 3208 3210 3212 3214 3214 3215 3217 3219 3220 3219 3219 3219 3220 3220 3221 3222 3223 3224 3226 3226 3227 3227 3227 3228 3229 3229 3230 3231 3232 3232 3233 3234 3235 3236 3236 3237 3237 3236 3235 3236 3236 3237 3237 3236 3236 3237 3237 3237 3237 3237 3237 3237 3237 3237 3237 3237 3237 3237 3236 3234 3234 3233 3233 3233 3233 3232 3232 3231 3230 3229 3228 3227 3226 3225 3224 3223 3222 3221 3220 3220
3194 3195 3196 3199 3201 3204 3206 3209 3210 3211 3211 3214 3216 3216 3215 3215 3216 3217 3218 3219 3219 3220 3221 3222 3223 3223 3224 3225 3225 3226 3227 3228 3229 3229 3230 3231 3231 3232 3233 3233 3234 3234 3233 3233 3233 3233 3233 3234 3234 3234 3234 3234 3234 3234 3235 3234 3234 3234 3234 3234 3233 3233 3233 3232 3232 3232 3231 3230 3230 3230 3229 3229 3228 3227 3227 3225 3224 3222 3222 3221 3221 3220 3219 3217 3216
3189 3192 3193 3195 3198 3200 3201 3204 3206 3207 3208 3210 3211 3211 3211 3212 3213 3214 3214 3215 3215 3216 3217 3218 3218 3219 3221 3222 3222 3224 3225 3226 3226 3227 3227 3228 3229 3229 3230 3230 3230 3230 3230 3230 3230 3230 3231 3231 3231 3231 3232 3232 3231 3231 3231 3231 3231 3231 3230 3230 3230 3230 3229 3229 3230 3230 3229 3228 3228 3227 3227 3226 3225 3224 3224 3222 3221 3220 3219 3219 3218 3217 3216 3215 3213
3186 3188 3190 3192 3194 3196 3197 3200 3202 3204 3205 3205 3206 3207 3208 3208 3209 3210 3210 3211 3211 3212 3213 3214 3215 3215 3217 3219 3220 3222 3222 3222 3223 3224 3225 3225 3226 3226 3226 3227 3227 3228 3227 3227 3227 3227 3228 3229 3229 3229 3229 3229 3228 3228 3228 3227 3227 3227 3227 3227 3227 3227 3226 3226 3226 3226 3226 3225 3225 3224 3223 3222 3222 3221 3220 3219 3218 3217 3216 3216 3215 3214 3212 3211 3210
3185 3187 3187 3189 3191 3193 3195 3197 3199 3200 3201 3202 3203 3203 3204 3205 3206 3207 3208 3208 3208 3208 3209 3210 3210 3212 3213 3215 3216 3218 3219 3219 3220 3221 3222 3222 3222 3223 3223 3224 3224 3225 3225 3224 3224 3224 3225 3225 3226 3226 3226 3226 3225 3225 3224 3224 3223 3223 3223 3223 3223 3223 3223 3222 3222 3222 3221 3221 3220 3219 3218 3218 3218 3217 3216 3215 3214 3214 3214 3213 3212 3210 3208 3207 3206
3184 3185 3186 3188 3190 3192 3193 3194 3196 3197 3197 3198 3199 3200 3201 3202 3203 3204 3205 3205 3205 3206 3206 3206 3207 3208 3211 3212 3211 3213 3215 3216 3217 3218 3219 3219 3219 3220 3220 3221 3221 3222 3222 3222 3221 3221 3221 3222 3222 3222 3222 3222 3222 3221 3221 3220 3220 3219 3219 3219 3219 3218 3218 3218 3218 3218 3217 3217 3216 3214 3213 3213 3212 3211 3211 3211 3211 3210 3210 3210 3208 3206 3205 3204 3202
3183 3184 3185 3187 3189 3190 3192 3192 3193 3194 3194 3195 3196 3197 3198 3199 3200 3202 3202 3202 3202 3204 3204 3205 3206 3207 3209 3210 3209 3210 3212 3214 3215 3216 3216 3216 3216 3217 3218 3218 3219 3219 3219 3219 3218 3219 3218 3218 3218 3218 3218 3218 3219 3218 3217 3217 3216 3216 3216 3215 3215 3214 3214 3214 3214 3214 3213 3212 3211 3210 3209 3209 3208 3207 3207 3207 3207 3206 3206 3205 3204 3203 3201 3200 3199
3182 3183 3185 3187 3188 3190 3190 3191 3191 3192 3192 3193 3194 3195 3196 3197 3198 3199 3199 3200 3201 3202 3203 3204 3204 3205 3207 3208 3209 3209 3211 3212 3212 3213 3213 3214 3214 3214 3215 3216 3216 3216 3216 3216 3215 3216 3216 3215 3215 3215 3215 3216 3215 3214 3214 3213 3213 3213 3212 3212 3211 3211 3210 3210 3210 3209 3209 3208 3207 3206 3206 3205 3205 3204 3204 3203 3203 3202 3202 3201 3200 3199 3198 3197 3196
3182 3183 3185 3187 3188 3189 3189 3190 3191 3191 3192 3192 3193 3194 3195 3196 3196 3197 3197 3198 3200 3201 3202 3203 3204 3205 3206 3207 3208 3209 3209 3210 3211 3212 3212 3212 3212 3213 3213 3213 3213 3213 3213 3213 3213 3213 3213 3213 3212 3212 3212 3212 3211 3211 3211 3210 3210 3209 3209 3209 3208 3207 3206 3206 3206 3206 3205 3205 3204 3203 3202 3201 3201 3200 3200 3200 3199 3198 3198 3197 3197 3196 3195 3194 3193
3182 3183 3185 3186 3187 3188 3189 3189 3190 3191 3191 3192 3193 3194 3195 3195 3196 3196 3197 3198 3199 3200 3201 3202 3203 3204 3205 3206 3207 3208 3208 3209 3210 3210 3210 3211 3211 3211 3211 3210 3210 3210 3210 3210 3210 3210 3209 3210 3210 3209 3209 3209 3208 3208 3208 3207 3207 3207 3206 3206 3205 3203 3203 3203 3203 3203 3202 3202 3201 3200 3199 3199 3198 3197 3196 3196 3195 3195 3194 3194 3193 3193 3192 3191 3190
3182 3183 3184 3185 3186 3187 3187 3188 3189 3190 3190 3191 3192 3192 3193 3194 3194 3195 3196 3197 3198 3199 3200 3200 3201 3202 3203 3205 3206 3207 3207 3208 3208 3208 3209 3209 3209 3209 3208 3207 3207 3207 3207 3207 3207 3206 3206 3206 3206 3206 3206 3206 3206 3206 3205 3205 3205 3204 3203 3203 3201 3200 3200 3200 3200 3200 3199 3198 3198 3197 3196 3196 3195 3194 3193 3192 3192 3191 3190 3190 3189 3189 3188 3187 3187
3181 3182 3183 3183 3184 3185 3186 3186 3187 3188 3189 3190 3191 3191 3192 3192 3193 3194 3195 3196 3197 3198 3199 3199 3200 3201 3202 3203 3204 3205 3206 3206 3206 3206 3206 3206 3206 3206 3205 3204 3204 3204 3204 3203 3203 3203 3203 3203 3203 3203 3203 3203 3202 3202 3202 3202 3202 3201 3200 3199 3198 3197 3197 3196 3196 3196 3195 3194 3194 3194 3193 3192 3191 3190 3190 3189 3188 3187 3186 3186 3185 3185 3184 3183 3183
3180 3181 3181 3182 3183 3184 3184 3185 3186 3187 3188 3189 3190 3190 3191 3192 3192 3193 3194 3195 3195 3196 3197 3198 3198 3199 3200 3200 3200 3201 3203 3203 3203 3204 3203 3203 3203 3203 3202 3201 3201 3200 3200 3200 3199 3199 3199 3199 3199 3199 3199 3199 3198 3198 3197 3197 3197 3197 3196 3196 3194 3193 3193 3193 3192 3192 3191 3190 3190 3190 3189 3188 3188 3187 3186 3185 3184 3183 3182 3181 3181 3180 3180 3179 3178
3179 3180 3181 3181 3182 3182 3183 3184 3184 3185 3186 3187 3188 3189 3190 3190 3191 3191 3192 3192 3193 3194 3195 3195 3196 3197 3197 3197 3197 3198 3199 3199 3199 3200 3199 3199 3199 3199 3198 3198 3198 3197 3197 3197 3196 3196 3196 3196 3196 3196 3196 3195 3194 3194 3194 3193 3193 3193 3192 3192 3191 3190 3190 3189 3189 3188 3187 3186 3186 3186 3185 3184 3184 3183 3182 3181 3180 3179 3178 3177 3176 3176 3175 3174 3174
3178 3179 3179 3180 3181 3181 3182 3182 3183 3183 3184 3185 3186 3186 3187 3188 3188 3189 3189 3190 3191 3191 3192 3192 3193 3194 3194 3194 3194 3195 3195 3195 3195 3196 3196 3195 3195 3195 3195 3194 3194 3194 3194 3193 3193 3193 3193 3193 3192 3192 3192 3192 3191 3191 3190 3190 3189 3189 3189 3188 3188 3187 3187 3186 3186 3185 3184 3183 3182 3182 3181 3180 3180 3179 3178 3177 3176 3176 3174 3173 3172 3171 3171 3170 3169
3176 3177 3178 3178 3179 3179 3180 3180 3181 3181 3182 3183 3183 3184 3184 3185 3186 3186 3187 3187 3188 3188 3189 3189 3190 3190 3191 3191 3191 3191 3191 3191 3191 3191 3192 3192 3191 3191 3191 3191 3191 3191 3190 3190 3190 3190 3189 3189 3189 3189 3189 3188 3187 3187 3187 3186 3186 3186 3185 3185 3184 3183 3183 3183 3182 3181 3180 3179 3179 3178 3177 3176 3175 3175 3174 3173 3172 3171 3170 3169 3168 3167 3166 3165 3163
3175 3175 3176 3176 3177 3177 3178 3179 3179 3179 3180 3181 3181 3182 3182 3183 3183 3183 3184 3184 3185 3185 3186 3186 3186 3187 3188 3188 3188 3188 3188 3188 3188 3188 3188 3188 3188 3188 3188 3188 3187 3187 3187 3187 3187 3186 3186 3186 3186 3186 3186 3185 3184 3184 3184 3183 3183 3182 3182 3181 3180 3180 3179 3179 3178 3177 3176 3176 3175 3174 3173 3172 3171 3170 3169 3168 3167 3166 3165 3164 3163 3161 3160 3159 3158
3173 3174 3174 3174 3174 3175 3176 3176 3177 3177 3178 3179 3179 3180 3180 3180 3181 3181 3181 3182 3182 3182 3183 3183 3183 3183 3184 3185 3185 3185 3185 3185 3185 3185 3185 3184 3184 3184 3184 3184 3184 3184 3184 3184 3183 3183 3183 3182 3182 3182 3182 3182 3181 3181 3180 3180 3179 3179 3178 3178 3177 3176 3176 3175 3174 3173 3173 3172 3171 3170 3169 3168 3167 3166 3165 3164 3162 3161 3160 3159 3158 3156 3155 3154 3153
3172 3172 3172 3172 3173 3173 3174 3174 3174 3175 3175 3176 3176 3177 3177 3178 3178 3179 3179 3179 3180 3180 3180 3180 3180 3181 3181 3181 3181 3182 3182 3182 3182 3182 3181 3181 3181 3181 3181 3181 3180 3180 3180 3180 3180 3180 3179 3179 3179 3179 3178 3178 3178 3177 3177 3176 3176 3175 3175 3174 3173 3172 3172 3171 3170 3169 3168 3168 3166 3165 3164 3163 3162 3161 3160 3159 3157 3156 3155 3154 3153 3151 3150 3148 3147
3170 3170 3170 3171 3171 3171 3171 3172 3172 3173 3173 3173 3173 3174 3174 3175 3175 3176 3176 3176 3177 3177 3177 3178 3178 3178 3178 3178 3178 3178 3178 3179 3179 3179 3178 3178 3178 3178 3178 3178 3177 3177 3177 3176 3176 3176 3175 3175 3175 3175 3174 3174 3173 3173 3173 3172 3172 3171 3170 3170 3169 3168 3168 3167 3165 3165 3164 3163 3161 3160 3159 3158 3157 3156 3155 3154 3152 3151 3150 3148 3147 3145 3144 3142 3141
3168 3169 3169 3169 3169 3169 3169 3170 3170 3170 3170 3171 3171 3171 3172 3172 3172 3172 3173 3173 3173 3174 3174 3175 3175 3175 3175 3175 3175 3175 3175 3175 3175 3175 3175 3175 3175 3175 3175 3175 3174 3173 3173 3173 3172 3172 3171 3171 3171 3171 3170 3170 3169 3169 3168 3168 3167 3167 3166 3165 3164 3164 3163 3162 3161 3160 3159 3158 3156 3155 3154 3153 3152 3150 3149 3148 3147 3146 3144 3143 3141 3140 3138 3136 3134
3166 3167 3167 3167 3167 3167 3167 3167 3168 3168 3168 3168 3169 3169 3169 3169 3169 3169 3170 3170 3170 3170 3170 3171 3171 3172 3171 3171 3171 3172 3172 3172 3171 3171 3171 3171 3171 3171 3171 3171 3171 3170 3169 3168 3168 3168 3167 3167 3167 3167 3166 3166 3165 3165 3164 3164 3163 3162 3161 3160 3159 3159 3158 3157 3156 3154 3153 3152 3151 3149 3148 3147 3146 3145 3143 3142 3141 3140 3139 3137 3135 3133 3132 3130 3128
3163 3164 3164 3164 3165 3165 3165 3165 3165 3166 3166 3166 3166 3166 3166 3166 3167 3167 3167 3166 3167 3167 3167 3167 3167 3167 3167 3167 3168 3169 3169 3168 3168 3167 3167 3167 3167 3167 3167 3167 3166 3166 3165 3164 3164 3164 3164 3164 3163 3162 3162 3161 3161 3160 3160 3159 3158 3158 3157 3156 3155 3154 3153 3152 3151 3149 3148 3147 3145 3144 3142 3141 3140 3139 3138 3137 3135 3134 3132 3130 3128 3126 3125 3124 3122
3160 3160 3161 3161 3161 3162 3162 3162 3162 3163 3163 3163 3163 3163 3164 3164 3164 3164 3164 3164 3163 3164 3164 3163 3163 3163 3163 3163 3164 3165 3165 3165 3164 3164 3164 3164 3163 3163 3163 3163 3162 3162 3161 3160 3160 3160 3160 3159 3159 3158 3157 3157 3156 3155 3155 3154 3153 3153 3152 3150 3149 3148 3147 3146 3145 3143 3142 3141 3139 3138 3136 3135 3134 3134 3133 3131 3129 3127 3125 3123 3122 3120 3118 3117 3115
3156 3157 3157 3158 3158 3158 3158 3159 3159 3159 3160 3160 3160 3160 3160 3161 3161 3161 3161 3161 3160 3160 3160 3160 3159 3159 3159 3159 3160 3160 3160 3161 3161 3161 3160 3159 3159 3159 3159 3159 3158 3158 3157 3156 3156 3155 3155 3155 3154 3153 3152 3151 3150 3150 3149 3148 3148 3147 3146 3145 3144 3143 3142 3141 3139 3138 3136 3135 3133 3131 3130 3130 3129 3128 3126 3124 3122 3120 3118 3117 3115 3114 3112 3110 3108
3153 3153 3154 3154 3154 3155 3155 3155 3155 3156 3156 3156 3157 3157 3157 3157 3158 3158 3158 3157 3157 3157 3157 3156 3156 3156 3156 3156 3156 3156 3156 3156 3156 3156 3156 3155 3155 3154 3154 3154 3154 3154 3153 3151 3151 3151 3151 3151 3150 3149 3148 3146 3145 3144 3144 3143 3142 3141 3140 3139 3138 3137 3136 3135 3134 3132 3131 3130 3128 3126 3125 3125 3124 3122 3120 3118 3116 3114 3113 3111 3109 3107 3106 3103 3101
3149 3149 3150 3150 3150 3151 3151 3151 3152 3152 3152 3153 3153 3153 3153 3154 3154 3154 3154 3154 3154 3154 3153 3153 3152 3152 3152 3152 3152 3152 3152 3151 3151 3150 3150 3150 3149 3149 3149 3149 3149 3148 3147 3146 3145 3145 3146 3146 3146 3144 3143 3142 3140 3139 3139 3138 3136 3135 3135 3134 3133 3132 3130 3129 3128 3127 3126 3125 3123 3121 3119 3118 3116 3115 3113 3112 3110 3108 3106 3104 3102 3100 3098 3096 3094
3144 3145 3146 3147 3147 3147 3147 3147 3148 3148 3149 3149 3149 3149 3149 3150 3150 3150 3150 3150 3150 3150 3150 3149 3148 3148 3148 3148 3148 3149 3148 3147 3147 3146 3146 3145 3144 3144 3144 3143 3143 3142 3141 3141 3140 3139 3140 3140 3140 3139 3138 3136 3135 3134 3133 3132 3130 3129 3129 3128 3127 3125 3124 3123 3122 3122 3120 3119 3117 3115 3113 3111 3109 3108 3107 3105 3103 3100 3098 3096 3094 3092 3089 3087 3085
3140 3141 3142 3143 3143 3143 3143 3143 3144 3144 3145 3145 3145 3146 3146 3146 3146 3145 3145 3145 3145 3145 3146 3145 3144 3143 3143 3143 3143 3144 3144 3143 3143 3142 3142 3141 3141 3140 3139 3138 3137 3136 3136 3136 3135 3134 3133 3133 3133 3132 3131 3130 3129 3128 3127 3126 3125 3124 3123 3121 3120 3119 3118 3117 3116 3115 3114 3112 3110 3109 3107 3105 3103 3101 3100 3098 3096 3094 3091 3089 3086 3084 3082 3079 3077
3135 3136 3137 3138 3139 3139 3139 3139 3140 3140 3140 3141 3141 3141 3141 3142 3142 3141 3141 3141 3141 3141 3141 3141 3140 3139 3138 3138 3138 3138 3138 3138 3138 3138 3138 3137 3136 3136 3135 3134 3133 3132 3131 3131 3130 3130 3129 3128 3127 3126 3125 3124 3124 3123 3122 3121 3119 3118 3117 3115 3114 3113 3112 3111 3110 3108 3106 3105 3103 3101 3099 3098 3096 3093 3091 3089 3087 3085 3083 3081 3078 3076 3073 3071 3068
3130 3131 3131 3132 3133 3134 3135 3135 3135 3135 3135 3136 3136 3137 3137 3137 3137 3137 3137 3137 3137 3136 3136 3136 3136 3135 3134 3133 3133 3132 3132 3132 3132 3132 3132 3132 3131 3131 3130 3129 3128 3127 3126 3126 3125 3125 3124 3123 3122 3120 3119 3119 3118 3117 3116 3115 3113 3112 3110 3109 3108 3106 3105 3104 3103 3101 3099 3097 3095 3093 3091 3090 3088 3086 3083 3081 3079 3076 3074 3072 3070 3067 3065 3063 3060
3124 3126 3126 3127 3127 3128 3129 3130 3130 3130 3131 3131 3131 3132 3132 3132 3132 3132 3133 3132 3132 3132 3132 3131 3131 3130 3130 3129 3128 3127 3127 3127 3126 3126 3126 3125 3125 3124 3124 3123 3122 3122 3121 3120 3120 3119 3118 3117 3116 3115 3114 3113 3112 3111 3110 3109 3107 3105 3104 3103 3102 3100 3099 3097 3095 3093 3092 3090 3088 3086 3084 3082 3081 3079 3077 3074 3072 3070 3068 3065 3063 3060 3058 3055 3053
3119 3120 3121 3122 3122 3123 3124 3124 3125 3125 3126 3126 3126 3127 3127 3127 3127 3127 3127 3127 3127 3127 3127 3127 3126 3126 3125 3124 3124 3123 3122 3122 3121 3121 3120 3120 3119 3118 3118 3117 3116 3116 3115 3115 3114 3113 3112 3111 3110 3109 3108 3107 3106 3104 3103 3102 3101 3099 3098 3097 3096 3094 3092 3091 3088 3087 3085 3083 3081 3079 3078 3076 3074 3072 3070 3068 3066 3064 3061 3059 3057 3054 3052 3049 3047
3114 3115 3116 3116 3117 3118 3118 3119 3120 3120 3121 3122 3122 3122 3122 3123 3122 3121 3121 3122 3122 3122 3122 3122 3121 3121 3121 3120 3119 3118 3118 3117 3116 3116 3115 3115 3114 3113 3112 3111 3111 3110 3109 3109 3108 3107 3106 3105 3104 3103 3102 3101 3100 3099 3097 3096 3094 3093 3092 3091 3089 3088 3086 3085 3083 3081 3079 3077 3075 3073 3071 3070 3068 3066 3064 3062 3060 3058 3055 3053 3051 3049 3047 3044 3042
3110 3110 3110 3111 3112 3113 3113 3114 3115 3115 3116 3117 3117 3117 3118 3118 3118 3117 3117 3117 3117 3117 3117 3117 3117 3116 3116 3115 3115 3114 3113 3112 3111 3111 3110 3110 3109 3108 3107 3106 3106 3105 3104 3103 3102 3101 3100 3099 3098 3098 3096 3095 3094 3093 3091 3090 3088 3087 3086 3085 3083 3081 3080 3078 3077 3075 3073 3071 3069 3067 3066 3064 3062 3060 3058 3056 3054 3052 3050 3048 3046 3044 3042 3040 3037
3104 3105 3105 3106 3107 3108 3108 3109 3110 3111 3111 3112 3112 3112 3113 3113 3113 3113 3113 3112 3112 3112 3112 3112 3111 3111 3111 3110 3109 3109 3108 3107 3106 3106 3105 3104 3104 3103 3102 3101 3100 3100 3099 3098 3097 3096 3095 3094 3093 3092 3090 3089 3088 3087 3085 3084 3082 3081 3080 3079 3077 3075 3074 3072 3071 3069 3067 3065 3063 3062 3060 3058 3056 3054 3052 3050 3048 3046 3044 3042 3040 3038 3037 3035 3032